Albuquerque Double Eagle, NM

9:55 AM MST on November 22, 2017 (GMT -0700)
Double Eagle Ii

Weather History for KAEG - December, 2013

Change the Weather History Date:

Monday, December 2, 2013

  Actual Average (KABQ) Record (KABQ)
Temperature  
Mean Temperature 37 °F -  
Max Temperature 48 °F 50 °F 68 °F (1942)
Min Temperature 26 °F 25 °F 11 °F (1918)
Degree Days  
Heating Degree Days 28    
Moisture  
Dew Point 25 °F    
Average Humidity 77    
Maximum Humidity 100    
Minimum Humidity 46    
Precipitation  
Precipitation 0.00 in - - ()
Sea Level Pressure  
Sea Level Pressure 30.07 in    
Wind  
Wind Speed 9 mph (NW)    
Max Wind Speed 23 mph    
Max Gust Speed 28 mph    
Visibility 10 miles    
Events      
Averages and records for this station are not official NWS values.
T = Trace of Precipitation, MM = Missing Value Source: NWS Daily Summary

Daily Weather History Graph

Daily Weather History Graph

Search for Another Location

Airport or City:

Trip Planner

Search our weather history database for the weather conditions in past years. The results will help you decide how hot, cold, wet, or windy it might be!

Date:

Astronomy

Dec. 02, 2013 Rise Set
Actual Time 6:58 AM MST 4:55 PM MST
Civil Twilight 6:30 AM MST 5:22 PM MST
Nautical Twilight 5:59 AM MST 5:54 PM MST
Astronomical Twilight 5:28 AM MST 6:24 PM MST
Moon 6:27 AM MST (12/2) 4:59 PM MST (12/2)
Length of Visible Light 10h 52m
Length of Day
9h 56m
Waning Crescent, 0% of the Moon is Illuminated
Dec 2
Waning Crescent
Dec 2
New
Dec 9
First Quarter
Dec 17
Full
Dec 25
Last Quarter

Hourly Weather History & Observations

Time (MST) Temp. Windchill Dew Point Humidity Pressure Visibility Wind Dir Wind Speed Gust Speed Precip Events Conditions
12:15 AM 28.2 °F 19.5 °F 24.1 °F 84% 30.23 in 10.0 mi North 9.2 mph - N/A   Clear
12:35 AM 29.7 °F 23.7 °F 24.1 °F 80% 30.22 in 10.0 mi NNE 5.8 mph - N/A   Clear
12:55 AM 27.9 °F - 23.4 °F 83% 30.22 in 10.0 mi Calm Calm - N/A   Clear
1:15 AM 29.1 °F 23.0 °F 23.9 °F 81% 30.22 in 10.0 mi NNW 5.8 mph - N/A   Clear
1:35 AM 29.5 °F 22.5 °F 24.4 °F 81% 30.22 in 10.0 mi NNW 6.9 mph - N/A   Clear
1:55 AM 28.8 °F 20.2 °F 24.4 °F 84% 30.22 in 10.0 mi NW 9.2 mph - N/A   Clear
2:15 AM 28.8 °F 17.9 °F 24.6 °F 84% 30.21 in 10.0 mi NNW 13.8 mph - N/A   Clear
2:35 AM 29.3 °F 19.1 °F 23.9 °F 80% 30.20 in 10.0 mi NNW 12.7 mph - N/A   Clear
2:55 AM 29.1 °F 17.9 °F 23.9 °F 81% 30.19 in 10.0 mi NNW 15.0 mph - N/A   Clear
3:15 AM 29.3 °F 16.6 °F 24.1 °F 81% 30.19 in 10.0 mi NNW 19.6 mph - N/A   Clear
3:35 AM 29.7 °F 16.1 °F 24.3 °F 80% 30.17 in 10.0 mi NW 23.0 mph 26.5 mph N/A   Clear
3:55 AM 29.3 °F 15.9 °F 24.3 °F 81% 30.16 in 10.0 mi NW 21.9 mph - N/A   Clear
4:15 AM 29.3 °F 16.6 °F 24.3 °F 81% 30.16 in 10.0 mi NW 19.6 mph 26.5 mph N/A   Clear
4:35 AM 29.1 °F 16.0 °F 24.3 °F 82% 30.16 in 10.0 mi NW 20.7 mph - N/A   Clear
5:50 AM 28.4 °F 17.0 °F 24.8 °F 86% 30.15 in 10.0 mi NNW 15.0 mph - N/A   Partly Cloudy
6:50 AM 30.2 °F 17.4 °F 24.8 °F 80% 30.14 in 10.0 mi NW 20.7 mph 27.6 mph N/A   Partly Cloudy
7:50 AM 30.2 °F 18.5 °F 24.8 °F 80% 30.15 in 10.0 mi NNW 17.3 mph - N/A   Partly Cloudy
8:50 AM 30.2 °F 18.5 °F 26.6 °F 86% 30.15 in 10.0 mi NW 17.3 mph - N/A   Partly Cloudy
9:50 AM 26.6 °F 18.2 °F 26.6 °F 100% 30.15 in 10.0 mi WNW 8.1 mph - N/A   Partly Cloudy
10:50 AM 39.2 °F 33.0 °F 26.6 °F 61% 30.12 in 10.0 mi West 9.2 mph - N/A   Partly Cloudy
11:50 AM 44.6 °F 40.7 °F 26.6 °F 49% 30.08 in 10.0 mi West 6.9 mph - N/A   Partly Cloudy
12:50 PM 46.4 °F 42.9 °F 28.4 °F 50% 30.06 in 10.0 mi West 6.9 mph - N/A   Clear
1:50 PM 46.4 °F 42.9 °F 28.4 °F 50% 30.02 in 10.0 mi Variable 6.9 mph - N/A   Clear
2:49 PM 48.2 °F - 28.4 °F 46% 30.00 in 10.0 mi Calm Calm - N/A   Partly Cloudy
3:49 PM 46.4 °F 43.5 °F 28.4 °F 50% 29.98 in 10.0 mi North 5.8 mph - N/A   Partly Cloudy
4:47 PM 41.0 °F 36.4 °F 28.4 °F 61% 29.97 in 10.0 mi Variable 6.9 mph - N/A   Partly Cloudy
6:50 PM 30.2 °F 24.3 °F 24.8 °F 80% 29.97 in 10.0 mi West 5.8 mph - N/A   Clear
7:49 PM 30.2 °F 24.3 °F 24.8 °F 80% 29.96 in 10.0 mi NW 5.8 mph - N/A   Clear
8:49 PM 28.4 °F - 24.8 °F 86% 29.94 in 10.0 mi Calm Calm - N/A   Clear
9:15 PM 28.2 °F - 23.7 °F 83% 29.94 in 10.0 mi Calm Calm - N/A   Clear
9:35 PM 30.4 °F - 24.6 °F 79% 29.94 in 10.0 mi Calm Calm - N/A   Clear
9:48 PM 28.4 °F - 24.8 °F 86% 29.93 in 10.0 mi Calm Calm - N/A   Clear
9:55 PM 32.4 °F 27.9 °F 25.7 °F 76% 29.93 in 10.0 mi SW 4.6 mph - N/A   Clear
10:15 PM 31.6 °F 28.3 °F 25.2 °F 77% 29.94 in 10.0 mi SW 3.5 mph - N/A   Clear
10:35 PM 29.3 °F - 24.3 °F 81% 29.93 in 10.0 mi Calm Calm - N/A   Clear
10:55 PM 28.8 °F 25.0 °F 23.9 °F 82% 29.92 in 10.0 mi SSW 3.5 mph - N/A   Clear
11:15 PM 28.6 °F 23.5 °F 23.7 °F 82% 29.91 in 10.0 mi SW 4.6 mph - N/A   Clear
11:35 PM 29.1 °F - 24.3 °F 82% 29.91 in 10.0 mi Calm Calm - N/A   Clear
11:55 PM 29.5 °F - 23.9 °F 80% 29.91 in 10.0 mi Calm Calm - N/A   Clear